Regional Weather Roundup
Issued by NWS Newport/Morehead, NC

Current Version | Previous Version | Graphics & Text | Print | Product List | Glossary Off
Versions: 1 2 3 4 5 6 7 8 9 10 11 12 13 14 15 16 17 18 19 20 21 22 23 24 25 26 27 28 29 30 31 32 33 34 35 36 37 38 39 40 41 42 43 44 45 46 47 48 49 50

000
ASUS42 KMHX 021812
RWRMHX
WEATHER ROUNDUP FOR EASTERN NORTH CAROLINA
NATIONAL WEATHER SERVICE NEWPORT/MOREHEAD CITY NC
100 PM EST MON MAR 02 2015

NOTE: "FAIR" INDICATES FEW OR NO CLOUDS BELOW 12,000 FEET
WITH NO SIGNIFICANT WEATHER AND/OR OBSTRUCTIONS TO VISIBILITY

NCZ015>017-031-032-045>047-102-103-021900-
NORTH COAST

CITY           SKY/WX    TMP DP  RH WIND       PRES   REMARKS
EDENTON        PTSUNNY   52  45  77 NE12      30.25S
ELIZABETH CITY MOSUNNY   48  38  68 N12       30.26F
KITTY HAWK     CLOUDY    40  40 100 N9G17     30.25S
MANTEO         PTSUNNY   43  37  81 N10       30.27S

$$

NCZ045>047-081-094-103-104-021900-
CENTRAL COAST

CITY           SKY/WX    TMP DP  RH WIND       PRES   REMARKS
FRISCO         CLOUDY    44  43  96 NW7       30.22F
SWANQUARTER      N/A     57 N/A N/A NW10G22   30.18S

$$

NCZ095-097-098-100-101-021900-
SOUTHERN COAST

CITY           SKY/WX    TMP DP  RH WIND       PRES   REMARKS
BEAUFORT       MOSUNNY   56  51  84 W8        30.22F
CEDAR ISLAND     N/A     46 N/A N/A N6        30.27S
JACKSONVILLE   MOSUNNY   57  48  72 VRB5      30.22F
PINEY ISLAND     N/A    N/A N/A N/A MISG      30.22F
WILMINGTON     CLOUDY    53  49  86 W7        30.24F


$$

NCZ011>013-027>030-043-044-078>080-089-090>093-098-021900-
COASTAL PLAIN

CITY           SKY/WX    TMP DP  RH WIND       PRES   REMARKS
AHOSKIE        SUNNY     53  42  68 N9        30.24F
CLINTON        MOSUNNY   56  48  75 NW8       30.24F
ELIZABETHTOWN  PTSUNNY   55  48  76 NW5       30.24F
GOLDSBORO      SUNNY     58  57  97 NW3       30.21F
GREENVILLE     SUNNY     57  45  62 N12       30.24F
HAVELOCK       MOSUNNY   59  47  64 NW15      30.24S
KENANSVILLE    MOSUNNY   55  46  72 NW6       30.25F
KINSTON        SUNNY     57  46  67 NW9       30.23F
NEW BERN       MOSUNNY   59  48  67 N9        30.23F
RICHLANDS      MOSUNNY   57  46  67 NW7       30.24F
ROCKY MOUNT    SUNNY     59  45  59 NW9G22    30.23F
WASHINGTON     SUNNY     55  46  69 N10       30.23F
WHITEVILLE     CLOUDY    53  49  87 N3        30.24F

$$

AMZ130-135-150-152-154-156-158-170-250-252-270-ANZ085-086-088-633-658-670-021900-
MARINE OBSERVATIONS

STATION/POSITION TIME  TEMP    WIND        PRES    WAVE   SWELL
                       AIR SEA DIR/SP/G            HT/PER HT/PER
                 (UTC) (F)     (DEG/KT/KT) (MB)    (FT/S) (FT/S)
CHESAPEAKE LIGHT NOT AVBL
64 E VA BEACH    1750   44 49  350/ 19/ 23 1023.3    4/ 7   2/ 7
DUCK             1700   35 34   20/ 15/ 17 1024.1
2 E DUCK         1711      34                N/A     3/ 7
10 NE DUCK       1722      37                N/A     3/ 7
OREGON INLET     1700   44 41  340/  8/ 10 1024.4
HATTERAS CG      1700   44 42  280/ 10/ 12 1023.9
CAPE LOOKOUT     1800   51     260/  7/  8 1023.2
BEAUFORT LAB     1700   51 43  260/  3/  6 1023.1
27 SE WRIGHTSVLE NOT AVBL
5 SE WRIGHTSVLE  NOT AVBL
225 S CAPE HAT   1750   71 73  280/  8/ 10 1023.6    6/ 9   5/ 9
41 SE CHARLESTON 1750   58 68  260/ 12/ 14 1024.2    4/ 9   3/ 9

$$



USA.gov is the U.S. government's official web portal to all federal, state and local government web resources and services.